[[{"header":{"parameterUnit":"m.s-1","parameterCategory":1,"la1":30.2991,"la2":30.254,"lo1":-89.0895,"lo2":-89.0444,"dy":0.0017,"dx":0.0017,"nx":28,"ny":28,"refTime":"2024-12-31T03:00:00:Z","depth":0,"parameterNumber":2,"parameterNumberName":"U-component_of_WINDS"},"data":[0,0,0,0,0,0,0,0,0,0,0,0,0,0,0,0,0,0,0,0,0,0,0,0,0,0,0,0,0,0,0,0,0,0,0,0,0,0,0,0,0,0,0,0,0,0,0,0,0,0,0,0,0,0,0,0,0,0,0.4609,0.4609,0,0.4643,0.4643,0.4644,0.4677,0.4677,0.4678,0.4678,0.4711,0.4711,0.4712,0,0,0,0,0,0,0,0,0,0,0,0,0,0.4572,0.4572,0.4609,0.4609,0.461,0.4643,0.4643,0.4644,0.4677,0.4677,0.4678,0.4678,0.4711,0.4711,0.4712,0,0,0,0,0,0,0,0,0,0,0,0,0,0.4595,0.4572,0.4609,0.463,0.4633,0.4643,0.4643,0.4644,0.4677,0.4677,0.4678,0.4679,0.4711,0.4711,0.4712,0.4703,0,0,0.4714,0.4714,0,0,0,0,0,0,0,0,0.4593,0.4596,0.4627,0.4629,0.4631,0.4656,0.4642,0.4664,0.4677,0.466,0.4678,0.4679,0.4692,0.4694,0.4699,0.4705,0.4706,0.4714,0.4715,0.4715,0.4715,0,0,0,0,0,0,0,0.4592,0.4595,0.4622,0.4627,0.463,0.4638,0.4642,0.4646,0.4672,0.4661,0.4664,0.4668,0.4694,0.4698,0.47,0.4706,0.4714,0.4715,0.4715,0.4715,0.4707,0.4706,0,0,0,0,0,0,0.4587,0.4593,0.4621,0.4623,0.4614,0.4638,0.4643,0.4648,0.4672,0.4676,0.4667,0.4669,0.4697,0.4699,0.4702,0.4693,0.4715,0.4716,0.4716,0.4708,0.4707,0.4706,0,0,0,0,0,0,0.4586,0.4589,0.462,0.4609,0.4614,0.4638,0.4643,0.4648,0.4653,0.4676,0.4681,0.4667,0.4698,0.4701,0.4703,0.4694,0.4716,0.4716,0.4708,0.4707,0.4706,0.4675,0,0,0,0,0,0,0.4585,0.4589,0.4586,0.4609,0.4614,0.4621,0.4643,0.4648,0.4654,0.4657,0.4678,0.4682,0.4698,0.4701,0.4703,0.4696,0.4717,0.4709,0.4708,0.4707,0.4677,0.4673,0.467,0,0,0,0,0,0.4584,0.4575,0.4585,0.4589,0.4611,0.462,0.4623,0.4643,0.4654,0.4651,0.4666,0.4681,0.4695,0.4701,0.4704,0.4696,0.471,0.4708,0.4707,0.4678,0.4674,0.467,0,0,0,0,0,0,0.4549,0.4578,0.459,0.4589,0.4602,0.4626,0.4622,0.4637,0.4647,0.4649,0.4673,0.4677,0.4676,0.4687,0.4693,0.4689,0.4705,0.4704,0.4682,0.4678,0.4675,0.4671,0.4718,0,0,0,0,0,0.4542,0.4547,0.4572,0.4569,0.4575,0.4597,0.4602,0.4617,0.4631,0.4636,0.4651,0.4664,0.4671,0.4675,0.4683,0.4679,0.4684,0.4675,0.4672,0.4669,0.4667,0.4665,0.4662,0.4701,0.4701,0.4701,0,0,0.4525,0.4542,0.4544,0.4562,0.4574,0.4579,0.4602,0.4606,0.4609,0.4636,0.4639,0.4651,0.4667,0.4666,0.4666,0.4674,0.4657,0.4667,0.4664,0.4664,0.4664,0.466,0.4656,0.47,0.4701,0.4701,0,0,0.4499,0.4512,0.4511,0.4522,0.454,0.4556,0.4556,0.4578,0.4587,0.459,0.4611,0.4616,0.4628,0.4638,0.4645,0.4624,0.4639,0.4626,0.4607,0.4606,0.4603,0.46,0.4592,0.4589,0.4625,0.4625,0.4625,0,0.4476,0.4485,0.4508,0.4511,0.4518,0.4544,0.4543,0.4553,0.4572,0.4577,0.4586,0.4603,0.4615,0.4617,0.4612,0.4617,0.4617,0.4623,0.4601,0.4599,0.4597,0.4589,0.4586,0.4623,0.4623,0.4624,0.4624,0,0.4456,0.4462,0.4458,0.4477,0.4485,0.4485,0.4508,0.4513,0.4527,0.4542,0.4545,0.4562,0.4573,0.4575,0.4589,0.4579,0.4584,0.4597,0.4613,0.4591,0.4584,0.4582,0.4621,0.4621,0.4622,0.4622,0,0,0.4406,0.4439,0.4438,0.4447,0.447,0.4474,0.4477,0.4489,0.4492,0.4505,0.4507,0.4518,0.4531,0.4539,0.4554,0.4553,0.4535,0.4566,0.4567,0.4559,0.4525,0.4514,0.451,0.4545,0.4545,0.4545,0.4523,0,0.4382,0.4388,0.441,0.4409,0.4415,0.4441,0.4443,0.4457,0.4471,0.4477,0.4493,0.45,0.4516,0.4521,0.4521,0.4537,0.4528,0.4539,0.4547,0.4547,0.4541,0.4507,0.4495,0.4474,0.4521,0.4521,0.452,0,0.4355,0.4367,0.4367,0.439,0.4393,0.4395,0.4409,0.4415,0.4432,0.4442,0.4452,0.4469,0.4473,0.4489,0.4494,0.4501,0.4506,0.4514,0.4514,0.4514,0.4531,0.4505,0.4468,0.4465,0.4517,0.4517,0.4517,0,0.4317,0.4334,0.4336,0.4344,0.4371,0.4371,0.4383,0.44,0.4407,0.4419,0.4424,0.4436,0.4442,0.4451,0.4472,0.4481,0.4474,0.4492,0.4483,0.4482,0.4478,0.4478,0.444,0.4484,0.4484,0.4484,0.4484,0,0.4288,0.4286,0.432,0.4321,0.4321,0.4346,0.4345,0.4359,0.4375,0.4379,0.4402,0.4406,0.4433,0.444,0.4456,0.4458,0.4461,0.4469,0.4473,0.4466,0.4465,0.4468,0.447,0.4483,0.4483,0.4483,0.4483,0,0.4245,0.4268,0.4272,0.4298,0.4305,0.4303,0.4326,0.4328,0.4344,0.4349,0.4352,0.4377,0.4387,0.4408,0.4423,0.4434,0.4431,0.4439,0.4425,0.4428,0.4417,0.4417,0.4379,0.4375,0.4422,0.4421,0.4421,0,0.4224,0.4224,0.425,0.4255,0.4266,0.4274,0.4281,0.4307,0.4313,0.4333,0.4333,0.4344,0.4354,0.4367,0.4387,0.4398,0.4406,0.4392,0.4408,0.4401,0.4405,0.4404,0.4404,0.4388,0.4387,0.4387,0.4386,0,0.4183,0.4195,0.4205,0.4219,0.4227,0.4239,0.4253,0.4255,0.4284,0.429,0.43,0.4308,0.4324,0.4335,0.435,0.4361,0.4378,0.4382,0.438,0.4372,0.4364,0.4367,0.4415,0.4382,0.4382,0.4383,0.4383,0.4383,0.415,0.4151,0.4171,0.4181,0.4194,0.4207,0.421,0.4228,0.4237,0.4252,0.4267,0.4275,0.4293,0.4315,0.4326,0.4333,0.4341,0.4339,0.4338,0.4337,0.4333,0.4364,0.4336,0.4336,0.4336,0.4336,0.4336,0,0.411,0.4124,0.4134,0.4153,0.4161,0.4178,0.4194,0.42,0.4207,0.4223,0.4233,0.4245,0.4256,0.4277,0.429,0.4291,0.4299,0.4294,0.4293,0.4295,0.4325,0.4325,0.4287,0.4287,0.4287,0.4287,0.4287,0.4287,0.409,0.4093,0.4107,0.4118,0.4132,0.4141,0.4149,0.416,0.4173,0.4186,0.4195,0.4209,0.4227,0.4242,0.4253,0.4259,0.4262,0.4253,0.4261,0.4289,0.4293,0.4298,0.4297,0.4254,0.4254,0.4231,0.4231,0.423]},{"header":{"parameterUnit":"m.s-1","parameterCategory":1,"la1":30.2991,"la2":30.254,"lo1":-89.0895,"lo2":-89.0444,"dy":0.0017,"dx":0.0017,"nx":28,"ny":28,"refTime":"2024-12-31T03:00:00:Z","depth":0,"parameterNumber":3,"parameterNumberName":"V-component_of_WINDS"},"data":[0,0,0,0,0,0,0,0,0,0,0,0,0,0,0,0,0,0,0,0,0,0,0,0,0,0,0,0,0,0,0,0,0,0,0,0,0,0,0,0,0,0,0,0,0,0,0,0,0,0,0,0,0,0,0,0,0,0,-6.0405,-6.0406,0,-6.0518,-6.0519,-6.052,-6.043,-6.0426,-6.0422,-6.0419,-6.0531,-6.0538,-6.0544,0,0,0,0,0,0,0,0,0,0,0,0,0,-6.0107,-6.0113,-6.0404,-6.0406,-6.0407,-6.0518,-6.0519,-6.0521,-6.0431,-6.0426,-6.0421,-6.0417,-6.0529,-6.0537,-6.0545,0,0,0,0,0,0,0,0,0,0,0,0,0,-6.023,-6.0115,-6.0404,-6.0376,-6.0374,-6.0517,-6.0519,-6.0521,-6.0432,-6.0426,-6.042,-6.0415,-6.0527,-6.0536,-6.0546,-6.0722,0,0,-6.0576,-6.058,0,0,0,0,0,0,0,0,-6.0223,-6.0241,-6.0378,-6.0378,-6.0377,-6.0454,-6.0456,-6.0589,-6.0433,-6.041,-6.0418,-6.0412,-6.051,-6.0521,-6.0555,-6.0728,-6.0732,-6.0577,-6.0583,-6.0587,-6.059,0,0,0,0,0,0,0,-6.0214,-6.0235,-6.0449,-6.0381,-6.0379,-6.0356,-6.0367,-6.048,-6.0491,-6.0411,-6.0405,-6.042,-6.0508,-6.0545,-6.0557,-6.0734,-6.0577,-6.0585,-6.0592,-6.0595,-6.1058,-6.1064,0,0,0,0,0,0,-6.0209,-6.0229,-6.0446,-6.0453,-6.0284,-6.0366,-6.0379,-6.0435,-6.0489,-6.0492,-6.0425,-6.0415,-6.0531,-6.0545,-6.056,-6.0771,-6.0587,-6.0596,-6.0602,-6.1051,-6.1059,-6.1066,0,0,0,0,0,0,-6.0203,-6.0229,-6.0441,-6.0339,-6.0364,-6.0378,-6.0441,-6.044,-6.0477,-6.0499,-6.05,-6.0461,-6.0527,-6.0546,-6.0683,-6.0774,-6.0601,-6.061,-6.1044,-6.1054,-6.1062,-6.1194,0,0,0,0,0,0,-6.0195,-6.0228,-6.0296,-6.0341,-6.037,-6.0563,-6.0447,-6.0447,-6.0495,-6.0484,-6.0534,-6.0536,-6.0524,-6.0669,-6.0693,-6.0784,-6.0618,-6.1036,-6.1048,-6.1059,-6.1182,-6.1207,-6.1229,0,0,0,0,0,-6.0185,-6.0327,-6.03,-6.0326,-6.0455,-6.0569,-6.0585,-6.0569,-6.0503,-6.0571,-6.0585,-6.0535,-6.076,-6.0684,-6.071,-6.0806,-6.103,-6.1045,-6.1059,-6.1171,-6.1202,-6.1228,0,0,0,0,0,0,-6.029,-6.0333,-6.0302,-6.0464,-6.0514,-6.0553,-6.0639,-6.0602,-6.0671,-6.0657,-6.0633,-6.0646,-6.079,-6.0811,-6.0725,-6.0979,-6.0884,-6.0904,-6.0961,-6.099,-6.1013,-6.1005,-6.0626,0,0,0,0,0,-6.0333,-6.0422,-6.0454,-6.0593,-6.062,-6.0626,-6.0674,-6.0658,-6.0708,-6.0728,-6.0752,-6.0801,-6.0883,-6.0937,-6.1014,-6.1184,-6.1194,-6.1263,-6.1286,-6.1305,-6.1323,-6.1415,-6.1447,-6.1113,-6.1113,-6.1112,0,0,-6.0421,-6.0455,-6.0513,-6.0616,-6.0652,-6.0745,-6.0644,-6.0745,-6.0814,-6.0743,-6.0874,-6.0894,-6.0947,-6.1102,-6.1171,-6.1124,-6.1418,-6.1323,-6.1338,-6.1346,-6.1433,-6.1465,-6.1493,-6.1123,-6.1121,-6.1119,0,0,-6.0629,-6.0664,-6.0785,-6.0824,-6.0881,-6.0883,-6.0912,-6.0958,-6.0969,-6.11,-6.1049,-6.1129,-6.127,-6.1311,-6.135,-6.1574,-6.1531,-6.16,-6.1722,-6.1813,-6.1839,-6.1862,-6.1943,-6.1972,-6.1617,-6.1618,-6.1618,0,-6.0731,-6.087,-6.0851,-6.0958,-6.1005,-6.0946,-6.1068,-6.1106,-6.1185,-6.1218,-6.1164,-6.1341,-6.1372,-6.1536,-6.1591,-6.1624,-6.1657,-6.1594,-6.1837,-6.186,-6.1881,-6.1958,-6.1989,-6.1626,-6.1625,-6.1624,-6.1623,0,-6.0993,-6.109,-6.1181,-6.126,-6.1317,-6.1431,-6.1428,-6.1488,-6.1466,-6.1475,-6.1609,-6.1645,-6.1729,-6.1766,-6.1745,-6.1927,-6.1896,-6.184,-6.1744,-6.1922,-6.1994,-6.2023,-6.1637,-6.1634,-6.1632,-6.163,0,0,-6.1272,-6.134,-6.1374,-6.1409,-6.1468,-6.1542,-6.1653,-6.1736,-6.1788,-6.1843,-6.1936,-6.2057,-6.2006,-6.2051,-6.2034,-6.2113,-6.229,-6.2047,-6.2048,-6.2092,-6.2493,-6.2536,-6.257,-6.2261,-6.2266,-6.2271,-6.2489,0,-6.1484,-6.1679,-6.1665,-6.1848,-6.1938,-6.1883,-6.1979,-6.2026,-6.2036,-6.2113,-6.2123,-6.221,-6.2135,-6.2162,-6.2238,-6.2252,-6.237,-6.2236,-6.2346,-6.2351,-6.2336,-6.2608,-6.2653,-6.2858,-6.2517,-6.2522,-6.2525,0,-6.1757,-6.1825,-6.2018,-6.2064,-6.2101,-6.2188,-6.2263,-6.2337,-6.2388,-6.239,-6.2441,-6.2411,-6.2522,-6.2423,-6.2575,-6.2484,-6.2528,-6.2542,-6.255,-6.256,-6.245,-6.2627,-6.2922,-6.2954,-6.2569,-6.2565,-6.2562,0,-6.1943,-6.2082,-6.2215,-6.2247,-6.2304,-6.2367,-6.2393,-6.2439,-6.249,-6.2554,-6.2587,-6.2664,-6.2706,-6.2765,-6.2757,-6.2685,-6.2913,-6.2812,-6.2917,-6.2918,-6.2969,-6.2966,-6.3277,-6.2995,-6.2995,-6.2994,-6.2993,0,-6.2182,-6.2303,-6.23,-6.2382,-6.2515,-6.2498,-6.263,-6.2648,-6.2689,-6.2774,-6.273,-6.281,-6.2793,-6.2872,-6.2866,-6.2994,-6.3013,-6.3017,-6.3014,-6.3022,-6.3022,-6.3052,-6.3038,-6.3002,-6.3,-6.2999,-6.2997,0,-6.2413,-6.2416,-6.2558,-6.2601,-6.2614,-6.271,-6.2746,-6.2824,-6.283,-6.2938,-6.2962,-6.2973,-6.3064,-6.3061,-6.3164,-6.3159,-6.3317,-6.3297,-6.3301,-6.3297,-6.3403,-6.3394,-6.3745,-6.379,-6.3478,-6.3481,-6.3484,0,-6.2566,-6.2657,-6.271,-6.2765,-6.2796,-6.2883,-6.2935,-6.2921,-6.2977,-6.3042,-6.3112,-6.3199,-6.3269,-6.3417,-6.3433,-6.3511,-6.3494,-6.3611,-6.3505,-6.351,-6.3497,-6.3492,-6.3502,-6.3632,-6.3636,-6.3639,-6.3641,0,-6.2838,-6.2835,-6.2912,-6.2992,-6.3055,-6.3116,-6.3172,-6.3219,-6.321,-6.3275,-6.3369,-6.3423,-6.3529,-6.3616,-6.3692,-6.3717,-6.3679,-6.3674,-6.3703,-6.3713,-6.3712,-6.3715,-6.3359,-6.3667,-6.3664,-6.3662,-6.3661,-6.366,-6.3035,-6.3114,-6.3164,-6.3253,-6.3293,-6.3347,-6.3422,-6.3439,-6.3518,-6.3604,-6.359,-6.3695,-6.3743,-6.3841,-6.3874,-6.3955,-6.3913,-6.3954,-6.3965,-6.3976,-6.3988,-6.3698,-6.3968,-6.3967,-6.3967,-6.3966,-6.3965,0,-6.3305,-6.3335,-6.3417,-6.3497,-6.3567,-6.3525,-6.3585,-6.3645,-6.3739,-6.3788,-6.3857,-6.3965,-6.405,-6.4073,-6.4154,-6.4215,-6.4199,-6.4237,-6.4233,-6.4239,-6.402,-6.3988,-6.4248,-6.4248,-6.4248,-6.4248,-6.4248,-6.4248,-6.3455,-6.3587,-6.3591,-6.3743,-6.3771,-6.3875,-6.3913,-6.3962,-6.4001,-6.4124,-6.4195,-6.421,-6.4248,-6.4332,-6.4408,-6.4412,-6.4444,-6.449,-6.4487,-6.4283,-6.4254,-6.4228,-6.4197,-6.4497,-6.4497,-6.4699,-6.4701,-6.4703]}]]